Time,TemperatureF,DewpointF,PressureIn,WindDirection,WindDirectionDegrees,WindSpeedMPH,WindSpeedGustMPH,Humidity,HourlyPrecipIn,Conditions,Clouds,dailyrainin,SoftwareType,DateUTC
2013-01-11 00:00:00,36.5,34.4,30.03,East,90,4.5,5.1,92,0.01,,,0.00,WUHU216HW,2013-01-11 05:00:00,
2013-01-11 00:05:00,36.4,34.2,30.03,East,90,3.1,4.7,92,0.00,,,0.00,WUHU216HW,2013-01-11 05:05:00,
2013-01-11 00:10:00,36.5,34.4,30.03,ESE,113,4.9,4.9,92,0.00,,,0.00,WUHU216HW,2013-01-11 05:10:00,
2013-01-11 00:15:00,36.5,34.4,30.02,East,90,2.0,5.4,92,0.00,,,0.00,WUHU216HW,2013-01-11 05:15:00,
2013-01-11 00:20:00,36.5,34.4,30.02,ESE,113,2.9,5.4,92,0.00,,,0.00,WUHU216HW,2013-01-11 05:20:00,
2013-01-11 00:25:00,36.5,34.4,30.01,East,90,3.6,4.9,92,0.00,,,0.00,WUHU216HW,2013-01-11 05:25:00,
2013-01-11 00:30:00,36.5,34.4,30.01,East,90,2.9,5.6,92,0.00,,,0.00,WUHU216HW,2013-01-11 05:30:00,
2013-01-11 00:35:00,36.5,34.4,30.00,East,90,4.0,5.6,92,0.00,,,0.00,WUHU216HW,2013-01-11 05:35:00,
2013-01-11 00:40:00,36.5,34.4,30.00,East,90,4.5,4.7,92,0.00,,,0.00,WUHU216HW,2013-01-11 05:40:00,
2013-01-11 00:45:00,36.5,34.4,30.00,East,90,4.7,8.1,92,0.00,,,0.00,WUHU216HW,2013-01-11 05:45:00,
2013-01-11 00:50:00,36.7,34.6,30.00,ESE,113,6.7,8.1,92,0.00,,,0.00,WUHU216HW,2013-01-11 05:50:00,
2013-01-11 00:55:00,37.1,34.9,29.99,ESE,113,4.0,9.6,92,0.00,,,0.00,WUHU216HW,2013-01-11 05:55:00,
2013-01-11 01:00:00,37.3,34.8,29.98,East,90,6.9,9.8,91,0.00,,,0.00,WUHU216HW,2013-01-11 06:00:00,
2013-01-11 01:05:00,37.4,34.7,29.99,SE,135,6.7,9.8,90,0.00,,,0.00,WUHU216HW,2013-01-11 06:05:00,
2013-01-11 01:10:00,37.4,34.7,29.98,ESE,113,4.5,9.2,90,0.00,,,0.00,WUHU216HW,2013-01-11 06:10:00,
2013-01-11 01:15:00,37.6,34.9,29.98,ESE,113,5.6,9.2,90,0.00,,,0.00,WUHU216HW,2013-01-11 06:15:00,
2013-01-11 01:20:00,37.6,35.2,29.97,ESE,113,3.6,6.7,91,0.00,,,0.00,WUHU216HW,2013-01-11 06:20:00,
2013-01-11 01:25:00,37.4,34.7,29.97,ESE,113,6.3,6.7,90,0.00,,,0.00,WUHU216HW,2013-01-11 06:25:00,
2013-01-11 01:30:00,37.4,35.0,29.98,South,180,4.7,6.3,91,0.00,,,0.00,WUHU216HW,2013-01-11 06:30:00,
2013-01-11 01:35:00,37.6,35.2,29.97,ESE,113,2.5,6.3,91,0.00,,,0.00,WUHU216HW,2013-01-11 06:35:00,
2013-01-11 01:40:00,37.4,35.0,29.97,ESE,113,4.5,6.9,91,0.00,,,0.00,WUHU216HW,2013-01-11 06:40:00,
2013-01-11 01:45:00,37.3,35.1,29.97,SE,135,6.3,6.9,92,0.01,,,0.02,WUHU216HW,2013-01-11 06:45:00,
2013-01-11 01:50:00,37.4,35.3,29.97,East,90,2.5,8.5,92,0.01,,,0.02,WUHU216HW,2013-01-11 06:50:00,
2013-01-11 01:55:00,37.4,35.3,29.96,ESE,113,4.7,8.5,92,0.02,,,0.02,WUHU216HW,2013-01-11 06:55:00,
2013-01-11 02:00:00,37.4,35.6,29.96,East,90,8.9,8.9,93,0.03,,,0.04,WUHU216HW,2013-01-11 07:00:00,
2013-01-11 02:05:00,37.4,35.6,29.95,East,90,4.0,8.9,93,0.03,,,0.04,WUHU216HW,2013-01-11 07:05:00,
2013-01-11 02:10:00,37.6,35.7,29.95,East,90,4.3,6.9,93,0.03,,,0.04,WUHU216HW,2013-01-11 07:10:00,
2013-01-11 02:15:00,37.6,35.7,29.95,ESE,113,5.4,6.9,93,0.03,,,0.04,WUHU216HW,2013-01-11 07:15:00,
2013-01-11 02:20:00,37.8,36.2,29.94,ESE,113,4.9,6.0,94,0.03,,,0.04,WUHU216HW,2013-01-11 07:20:00,
2013-01-11 02:25:00,37.8,36.2,29.94,East,90,4.7,7.6,94,0.03,,,0.04,WUHU216HW,2013-01-11 07:25:00,
2013-01-11 02:30:00,37.8,36.2,29.93,East,90,4.0,7.6,94,0.03,,,0.04,WUHU216HW,2013-01-11 07:30:00,
2013-01-11 02:35:00,37.8,36.2,29.93,ESE,113,6.7,6.9,94,0.03,,,0.04,WUHU216HW,2013-01-11 07:35:00,
2013-01-11 02:40:00,37.8,36.2,29.92,East,90,3.6,6.7,94,0.02,,,0.04,WUHU216HW,2013-01-11 07:40:00,
2013-01-11 02:45:00,37.8,36.2,29.92,East,90,5.4,6.9,94,0.02,,,0.04,WUHU216HW,2013-01-11 07:45:00,
2013-01-11 02:50:00,37.8,36.2,29.92,East,90,5.1,6.9,94,0.02,,,0.04,WUHU216HW,2013-01-11 07:50:00,
2013-01-11 02:55:00,37.8,36.2,29.92,ESE,113,3.6,6.9,94,0.01,,,0.04,WUHU216HW,2013-01-11 07:55:00,
2013-01-11 03:00:00,37.8,36.2,29.92,East,90,4.3,4.7,94,0.00,,,0.04,WUHU216HW,2013-01-11 08:00:00,
2013-01-11 03:05:00,37.8,36.2,29.91,East,90,3.8,4.5,94,0.00,,,0.04,WUHU216HW,2013-01-11 08:05:00,
2013-01-11 03:10:00,37.8,36.2,29.91,East,90,3.1,5.6,94,0.00,,,0.04,WUHU216HW,2013-01-11 08:10:00,
2013-01-11 03:15:00,38.0,36.4,29.90,East,90,4.7,8.7,94,0.00,,,0.04,WUHU216HW,2013-01-11 08:15:00,
2013-01-11 03:20:00,38.2,36.5,29.90,East,90,2.9,8.7,94,0.00,,,0.04,WUHU216HW,2013-01-11 08:20:00,
2013-01-11 03:25:00,38.2,36.5,29.90,East,90,3.8,5.6,94,0.00,,,0.04,WUHU216HW,2013-01-11 08:25:00,
2013-01-11 03:30:00,38.3,36.7,29.90,East,90,4.9,7.2,94,0.00,,,0.04,WUHU216HW,2013-01-11 08:30:00,
2013-01-11 03:35:00,38.5,36.9,29.90,ESE,113,4.0,9.6,94,0.01,,,0.04,WUHU216HW,2013-01-11 08:35:00,
2013-01-11 03:40:00,38.9,37.3,29.90,ESE,113,3.6,9.6,94,0.01,,,0.04,WUHU216HW,2013-01-11 08:40:00,
2013-01-11 03:45:00,38.9,37.3,29.89,ESE,113,2.2,5.4,94,0.01,,,0.04,WUHU216HW,2013-01-11 08:45:00,
2013-01-11 03:50:00,39.1,37.4,29.89,East,90,3.4,7.4,94,0.01,,,0.04,WUHU216HW,2013-01-11 08:50:00,
2013-01-11 03:55:00,39.1,37.4,29.88,ESE,113,3.4,7.4,94,0.01,,,0.04,WUHU216HW,2013-01-11 08:55:00,
2013-01-11 04:00:00,39.1,37.4,29.87,East,90,4.0,5.1,94,0.01,,,0.04,WUHU216HW,2013-01-11 09:00:00,
2013-01-11 04:05:00,39.1,37.4,29.88,SE,135,5.1,5.1,94,0.01,,,0.04,WUHU216HW,2013-01-11 09:05:00,
2013-01-11 04:10:00,39.1,37.4,29.87,East,90,5.8,5.8,94,0.01,,,0.04,WUHU216HW,2013-01-11 09:10:00,
2013-01-11 04:15:00,38.9,37.3,29.87,SE,135,2.5,5.8,94,0.01,,,0.04,WUHU216HW,2013-01-11 09:15:00,
2013-01-11 04:20:00,38.9,37.3,29.86,East,90,5.8,6.3,94,0.01,,,0.04,WUHU216HW,2013-01-11 09:20:00,
2013-01-11 04:25:00,38.9,37.3,29.86,East,90,4.9,6.3,94,0.01,,,0.04,WUHU216HW,2013-01-11 09:25:00,
2013-01-11 04:30:00,39.1,37.4,29.85,East,90,5.4,5.8,94,0.01,,,0.04,WUHU216HW,2013-01-11 09:30:00,
2013-01-11 04:35:00,39.1,37.4,29.85,East,90,4.0,7.6,94,0.00,,,0.04,WUHU216HW,2013-01-11 09:35:00,
2013-01-11 04:40:00,39.1,37.4,29.85,ESE,113,6.9,7.6,94,0.00,,,0.04,WUHU216HW,2013-01-11 09:40:00,
2013-01-11 04:45:00,39.2,37.6,29.85,SE,135,4.7,6.9,94,0.00,,,0.04,WUHU216HW,2013-01-11 09:45:00,
2013-01-11 04:50:00,39.2,37.6,29.85,East,90,3.1,7.8,94,0.00,,,0.04,WUHU216HW,2013-01-11 09:50:00,
2013-01-11 04:55:00,39.4,37.5,29.85,SE,135,5.4,7.8,93,0.00,,,0.04,WUHU216HW,2013-01-11 09:55:00,
2013-01-11 05:00:00,39.6,38.0,29.84,ESE,113,4.7,7.6,94,0.00,,,0.04,WUHU216HW,2013-01-11 10:00:00,
2013-01-11 05:05:00,39.6,37.7,29.84,East,90,3.4,6.3,93,0.02,,,0.06,WUHU216HW,2013-01-11 10:05:00,
2013-01-11 05:10:00,39.6,37.7,29.84,ESE,113,6.9,6.9,93,0.03,,,0.06,WUHU216HW,2013-01-11 10:10:00,
2013-01-11 05:16:00,39.4,37.5,29.85,SE,135,4.3,6.9,93,0.05,,,0.09,WUHU216HW,2013-01-11 10:16:00,
2013-01-11 05:21:00,39.4,37.5,29.84,ESE,113,4.7,5.4,93,0.07,,,0.11,WUHU216HW,2013-01-11 10:21:00,
2013-01-11 05:26:00,39.6,38.0,29.84,SE,135,7.6,9.4,94,0.08,,,0.13,WUHU216HW,2013-01-11 10:26:00,
2013-01-11 05:31:00,39.8,38.2,29.84,SSE,158,6.7,9.4,94,0.10,,,0.15,WUHU216HW,2013-01-11 10:31:00,
2013-01-11 05:36:00,40.0,38.3,29.83,ESE,113,6.3,8.1,94,0.12,,,0.17,WUHU216HW,2013-01-11 10:36:00,
2013-01-11 05:41:00,40.1,38.5,29.84,SE,135,4.0,8.1,94,0.12,,,0.17,WUHU216HW,2013-01-11 10:41:00,
2013-01-11 05:46:00,40.3,38.7,29.83,SE,135,6.5,8.1,94,0.13,,,0.18,WUHU216HW,2013-01-11 10:46:00,
2013-01-11 05:51:00,40.3,39.0,29.83,SE,135,4.7,7.2,95,0.14,,,0.19,WUHU216HW,2013-01-11 10:51:00,
2013-01-11 05:56:00,40.5,39.2,29.83,SE,135,6.3,8.5,95,0.15,,,0.20,WUHU216HW,2013-01-11 10:56:00,
2013-01-11 06:01:00,40.7,39.3,29.83,SE,135,4.7,10.5,95,0.14,,,0.21,WUHU216HW,2013-01-11 11:01:00,
2013-01-11 06:06:00,41.0,39.7,29.83,SE,135,4.5,10.5,95,0.14,,,0.21,WUHU216HW,2013-01-11 11:06:00,
2013-01-11 06:11:00,41.0,39.4,29.82,ESE,113,6.0,6.9,94,0.14,,,0.22,WUHU216HW,2013-01-11 11:11:00,
2013-01-11 06:16:00,41.4,40.1,29.80,SE,135,5.6,6.9,95,0.11,,,0.23,WUHU216HW,2013-01-11 11:16:00,
2013-01-11 06:21:00,41.8,40.4,29.81,SE,135,5.8,7.6,95,0.11,,,0.24,WUHU216HW,2013-01-11 11:21:00,
2013-01-11 06:26:00,41.9,40.6,29.81,SE,135,4.9,7.6,95,0.09,,,0.24,WUHU216HW,2013-01-11 11:26:00,
2013-01-11 06:31:00,42.3,41.0,29.81,SSE,158,6.0,11.4,95,0.08,,,0.24,WUHU216HW,2013-01-11 11:31:00,
2013-01-11 06:36:00,42.7,41.3,29.80,SE,135,5.4,11.4,95,0.07,,,0.24,WUHU216HW,2013-01-11 11:36:00,
2013-01-11 06:41:00,43.2,41.9,29.79,SE,135,7.2,10.7,95,0.06,,,0.24,WUHU216HW,2013-01-11 11:41:00,
2013-01-11 06:46:00,43.7,42.4,29.79,SE,135,7.4,11.4,95,0.06,,,0.25,WUHU216HW,2013-01-11 11:46:00,
2013-01-11 06:51:00,44.1,42.8,29.79,ESE,113,6.0,11.4,95,0.06,,,0.25,WUHU216HW,2013-01-11 11:51:00,
2013-01-11 06:56:00,44.3,42.9,29.78,ESE,113,6.9,9.8,95,0.04,,,0.25,WUHU216HW,2013-01-11 11:56:00,
2013-01-11 07:01:00,44.3,42.9,29.78,SE,135,8.1,9.8,95,0.04,,,0.25,WUHU216HW,2013-01-11 12:01:00,
2013-01-11 07:06:00,44.3,42.9,29.78,SSE,158,11.4,11.4,95,0.03,,,0.25,WUHU216HW,2013-01-11 12:06:00,
2013-01-11 07:11:00,44.6,43.3,29.77,SE,135,5.4,11.4,95,0.03,,,0.25,WUHU216HW,2013-01-11 12:11:00,
2013-01-11 07:16:00,45.2,43.8,29.77,ESE,113,7.6,10.5,95,0.02,,,0.26,WUHU216HW,2013-01-11 12:16:00,
2013-01-11 07:21:00,45.7,44.4,29.78,SSE,158,8.3,10.3,95,0.02,,,0.26,WUHU216HW,2013-01-11 12:21:00,
2013-01-11 07:26:00,46.3,44.9,29.77,South,180,9.2,13.0,95,0.02,,,0.26,WUHU216HW,2013-01-11 12:26:00,
2013-01-11 07:31:00,46.4,45.1,29.76,ESE,113,12.1,13.0,95,0.02,,,0.26,WUHU216HW,2013-01-11 12:31:00,
2013-01-11 07:36:00,47.0,45.6,29.76,SSE,158,9.6,12.1,95,0.02,,,0.26,WUHU216HW,2013-01-11 12:36:00,
2013-01-11 07:41:00,47.2,46.1,29.73,ESE,113,12.1,13.9,96,0.01,,,0.26,WUHU216HW,2013-01-11 12:41:00,
2013-01-11 07:46:00,47.5,46.4,29.73,ESE,113,14.3,14.3,96,0.01,,,0.26,WUHU216HW,2013-01-11 12:46:00,
2013-01-11 07:51:00,47.7,46.6,29.74,SE,135,8.1,14.3,96,0.01,,,0.26,WUHU216HW,2013-01-11 12:51:00,
2013-01-11 07:56:00,47.7,46.6,29.73,SE,135,11.0,14.1,96,0.01,,,0.26,WUHU216HW,2013-01-11 12:56:00,
2013-01-11 08:01:00,47.9,46.8,29.73,SSE,158,7.6,11.9,96,0.01,,,0.26,WUHU216HW,2013-01-11 13:01:00,
2013-01-11 08:06:00,47.9,46.8,29.73,SE,135,9.4,12.5,96,0.01,,,0.26,WUHU216HW,2013-01-11 13:06:00,
2013-01-11 08:11:00,48.1,47.0,29.73,SE,135,6.3,12.5,96,0.01,,,0.26,WUHU216HW,2013-01-11 13:11:00,
2013-01-11 08:16:00,48.1,47.0,29.74,SE,135,8.5,11.2,96,0.00,,,0.26,WUHU216HW,2013-01-11 13:16:00,
2013-01-11 08:21:00,48.2,46.9,29.75,SSE,158,10.5,10.5,95,0.00,,,0.26,WUHU216HW,2013-01-11 13:21:00,
2013-01-11 08:26:00,48.4,47.1,29.75,SSW,203,8.3,10.5,95,0.00,,,0.26,WUHU216HW,2013-01-11 13:26:00,
2013-01-11 08:31:00,48.6,47.3,29.76,South,180,11.0,11.0,95,0.00,,,0.26,WUHU216HW,2013-01-11 13:31:00,
2013-01-11 08:36:00,48.6,47.3,29.77,South,180,6.9,11.0,95,0.00,,,0.26,WUHU216HW,2013-01-11 13:36:00,
2013-01-11 08:41:00,48.6,47.3,29.76,South,180,6.9,13.0,95,0.00,,,0.26,WUHU216HW,2013-01-11 13:41:00,
2013-01-11 08:46:00,48.8,47.7,29.76,South,180,8.5,13.0,96,0.00,,,0.26,WUHU216HW,2013-01-11 13:46:00,
2013-01-11 08:51:00,49.0,47.6,29.77,South,180,11.6,11.6,95,0.00,,,0.26,WUHU216HW,2013-01-11 13:51:00,
2013-01-11 08:56:00,49.0,47.6,29.77,South,180,10.7,11.6,95,0.00,,,0.26,WUHU216HW,2013-01-11 13:56:00,
2013-01-11 09:01:00,49.0,47.6,29.77,South,180,5.6,10.7,95,0.00,,,0.26,WUHU216HW,2013-01-11 14:01:00,
2013-01-11 09:06:00,49.0,47.6,29.78,South,180,6.7,9.8,95,0.00,,,0.26,WUHU216HW,2013-01-11 14:06:00,
2013-01-11 09:11:00,49.0,47.6,29.78,SW,225,7.2,7.2,95,0.00,,,0.26,WUHU216HW,2013-01-11 14:11:00,
2013-01-11 09:16:00,49.0,47.6,29.78,SSW,203,7.4,7.4,95,0.00,,,0.26,WUHU216HW,2013-01-11 14:16:00,
2013-01-11 09:21:00,49.0,47.6,29.77,South,180,9.4,9.4,95,0.00,,,0.26,WUHU216HW,2013-01-11 14:21:00,
2013-01-11 09:26:00,49.1,47.7,29.77,SSW,203,9.2,9.4,95,0.00,,,0.26,WUHU216HW,2013-01-11 14:26:00,
2013-01-11 09:31:00,49.3,47.9,29.77,South,180,9.8,12.3,95,0.00,,,0.26,WUHU216HW,2013-01-11 14:31:00,
2013-01-11 09:36:00,49.5,48.1,29.77,SSE,158,6.0,12.3,95,0.00,,,0.26,WUHU216HW,2013-01-11 14:36:00,
2013-01-11 09:41:00,49.5,48.1,29.77,SSW,203,6.5,9.8,95,0.00,,,0.26,WUHU216HW,2013-01-11 14:41:00,
2013-01-11 09:46:00,49.7,48.2,29.77,South,180,5.4,6.5,95,0.00,,,0.26,WUHU216HW,2013-01-11 14:46:00,
2013-01-11 09:51:00,49.7,48.2,29.77,South,180,7.6,8.1,95,0.00,,,0.26,WUHU216HW,2013-01-11 14:51:00,
2013-01-11 09:56:00,49.7,48.2,29.77,SSW,203,5.8,8.1,95,0.00,,,0.26,WUHU216HW,2013-01-11 14:56:00,
2013-01-11 10:01:00,49.9,48.4,29.77,SSW,203,7.8,7.8,95,0.00,,,0.26,WUHU216HW,2013-01-11 15:01:00,
2013-01-11 10:06:00,50.0,48.6,29.77,SSW,203,7.8,7.8,95,0.00,,,0.26,WUHU216HW,2013-01-11 15:06:00,
2013-01-11 10:11:00,50.2,48.8,29.77,SSW,203,8.3,9.2,95,0.00,,,0.26,WUHU216HW,2013-01-11 15:11:00,
2013-01-11 10:16:00,50.4,49.0,29.77,SW,225,5.4,9.2,95,0.00,,,0.26,WUHU216HW,2013-01-11 15:16:00,
2013-01-11 10:21:00,50.6,49.1,29.78,SSW,203,14.5,14.5,95,0.02,,,0.28,WUHU216HW,2013-01-11 15:21:00,
2013-01-11 10:26:00,50.9,49.5,29.78,South,180,8.7,14.5,95,0.02,,,0.28,WUHU216HW,2013-01-11 15:26:00,
2013-01-11 10:31:00,51.1,49.7,29.78,SSW,203,8.5,8.7,95,0.02,,,0.28,WUHU216HW,2013-01-11 15:31:00,
2013-01-11 10:36:00,51.5,50.0,29.78,SSW,203,10.3,10.3,95,0.02,,,0.28,WUHU216HW,2013-01-11 15:36:00,
2013-01-11 10:41:00,51.7,50.2,29.78,SSW,203,8.1,10.3,95,0.02,,,0.28,WUHU216HW,2013-01-11 15:41:00,
2013-01-11 10:46:00,51.7,50.2,29.78,WSW,248,6.3,8.7,95,0.03,,,0.28,WUHU216HW,2013-01-11 15:46:00,
2013-01-11 10:51:00,51.8,50.4,29.78,SW,225,8.5,8.7,95,0.03,,,0.29,WUHU216HW,2013-01-11 15:51:00,
2013-01-11 10:56:00,52.2,50.8,29.79,SW,225,11.2,13.2,95,0.03,,,0.29,WUHU216HW,2013-01-11 15:56:00,
2013-01-11 11:01:00,52.2,50.8,29.79,SW,225,9.6,13.2,95,0.03,,,0.29,WUHU216HW,2013-01-11 16:01:00,
2013-01-11 11:06:00,52.7,51.3,29.78,SSW,203,9.4,11.9,95,0.03,,,0.29,WUHU216HW,2013-01-11 16:06:00,
2013-01-11 11:11:00,52.9,51.5,29.78,SW,225,12.8,12.8,95,0.03,,,0.29,WUHU216HW,2013-01-11 16:11:00,
2013-01-11 11:16:00,53.1,51.7,29.78,SW,225,14.1,15.9,95,0.01,,,0.29,WUHU216HW,2013-01-11 16:16:00,
2013-01-11 11:21:00,53.3,52.1,29.78,SSW,203,11.4,15.9,96,0.01,,,0.29,WUHU216HW,2013-01-11 16:21:00,
2013-01-11 11:26:00,53.5,52.3,29.78,SSW,203,11.0,12.3,96,0.01,,,0.29,WUHU216HW,2013-01-11 16:26:00,
2013-01-11 11:31:00,53.6,52.2,29.78,SW,225,20.4,20.4,95,0.01,,,0.29,WUHU216HW,2013-01-11 16:31:00,
2013-01-11 11:36:00,53.8,52.4,29.78,WSW,248,9.8,20.4,95,0.01,,,0.29,WUHU216HW,2013-01-11 16:36:00,
2013-01-11 11:41:00,53.8,52.4,29.78,SW,225,12.8,14.3,95,0.01,,,0.29,WUHU216HW,2013-01-11 16:41:00,
2013-01-11 11:46:00,54.0,52.6,29.78,SSW,203,10.1,14.3,95,0.00,,,0.29,WUHU216HW,2013-01-11 16:46:00,
2013-01-11 11:51:00,54.2,52.7,29.78,SSW,203,8.5,14.3,95,0.00,,,0.29,WUHU216HW,2013-01-11 16:51:00,
2013-01-11 11:56:00,54.2,52.7,29.78,SW,225,13.0,13.0,95,0.00,,,0.29,WUHU216HW,2013-01-11 16:56:00,
2013-01-11 12:01:00,54.7,53.0,29.78,WSW,248,13.2,13.2,94,0.00,,,0.29,WUHU216HW,2013-01-11 17:01:00,
2013-01-11 12:06:00,54.9,53.2,29.78,SSW,203,10.5,13.6,94,0.00,,,0.29,WUHU216HW,2013-01-11 17:06:00,
2013-01-11 12:11:00,55.1,53.1,29.77,SW,225,14.8,17.9,93,0.00,,,0.29,WUHU216HW,2013-01-11 17:11:00,
2013-01-11 12:16:00,55.1,53.1,29.77,SW,225,12.3,17.9,93,0.00,,,0.29,WUHU216HW,2013-01-11 17:16:00,
2013-01-11 12:21:00,54.5,52.2,29.77,SW,225,15.7,15.7,92,0.00,,,0.29,WUHU216HW,2013-01-11 17:21:00,
2013-01-11 12:26:00,55.3,52.9,29.77,WSW,248,12.1,15.7,92,0.00,,,0.29,WUHU216HW,2013-01-11 17:26:00,
2013-01-11 12:31:00,55.4,53.1,29.77,SW,225,9.4,15.7,92,0.00,,,0.29,WUHU216HW,2013-01-11 17:31:00,
2013-01-11 12:36:00,55.8,53.5,29.77,WSW,248,10.3,15.7,92,0.00,,,0.29,WUHU216HW,2013-01-11 17:36:00,
2013-01-11 12:41:00,56.5,53.6,29.77,WSW,248,15.2,15.2,90,0.00,,,0.29,WUHU216HW,2013-01-11 17:41:00,
2013-01-11 12:46:00,56.9,53.6,29.76,SW,225,16.1,16.1,89,0.00,,,0.29,WUHU216HW,2013-01-11 17:46:00,
2013-01-11 12:51:00,56.9,53.4,29.76,SSW,203,10.7,16.1,88,0.00,,,0.29,WUHU216HW,2013-01-11 17:51:00,
2013-01-11 12:56:00,56.9,53.4,29.76,SSW,203,14.8,17.0,88,0.00,,,0.29,WUHU216HW,2013-01-11 17:56:00,
2013-01-11 13:01:00,56.7,52.6,29.76,SW,225,11.6,17.0,86,0.00,,,0.29,WUHU216HW,2013-01-11 18:01:00,
2013-01-11 13:06:00,56.7,52.6,29.76,SW,225,11.4,13.4,86,0.00,,,0.29,WUHU216HW,2013-01-11 18:06:00,
2013-01-11 13:11:00,56.9,52.4,29.76,WSW,248,21.5,21.5,85,0.00,,,0.29,WUHU216HW,2013-01-11 18:11:00,
2013-01-11 13:16:00,57.1,52.2,29.76,SW,225,19.2,21.5,84,0.00,,,0.29,WUHU216HW,2013-01-11 18:16:00,
2013-01-11 13:21:00,57.1,51.9,29.76,SW,225,15.7,21.5,83,0.00,,,0.29,WUHU216HW,2013-01-11 18:21:00,
2013-01-11 13:26:00,56.9,52.0,29.76,SW,225,14.1,19.9,84,0.00,,,0.29,WUHU216HW,2013-01-11 18:26:00,
2013-01-11 13:31:00,57.1,52.2,29.77,SW,225,16.8,16.8,84,0.00,,,0.29,WUHU216HW,2013-01-11 18:31:00,
2013-01-11 13:36:00,56.5,51.4,29.77,West,270,13.9,16.8,83,0.00,,,0.29,WUHU216HW,2013-01-11 18:36:00,
2013-01-11 13:41:00,55.8,50.9,29.77,WSW,248,15.7,15.7,84,0.00,,,0.29,WUHU216HW,2013-01-11 18:41:00,
2013-01-11 13:46:00,55.4,50.0,29.77,SW,225,16.6,17.4,82,0.00,,,0.29,WUHU216HW,2013-01-11 18:46:00,
2013-01-11 13:51:00,55.1,49.7,29.77,SW,225,18.6,18.6,82,0.00,,,0.29,WUHU216HW,2013-01-11 18:51:00,
2013-01-11 13:56:00,55.8,50.7,29.78,SW,225,11.6,18.6,83,0.00,,,0.29,WUHU216HW,2013-01-11 18:56:00,
2013-01-11 14:01:00,56.2,50.4,29.77,WSW,248,17.9,18.6,81,0.00,,,0.29,WUHU216HW,2013-01-11 19:01:00,
2013-01-11 14:07:00,55.8,50.1,29.78,WSW,248,12.1,17.9,81,0.00,,,0.29,WUHU216HW,2013-01-11 19:07:00,
2013-01-11 14:12:00,55.3,49.8,29.78,SW,225,6.9,17.9,82,0.00,,,0.29,WUHU216HW,2013-01-11 19:12:00,
2013-01-11 14:17:00,54.7,50.0,29.78,WSW,248,9.8,13.6,84,0.00,,,0.29,WUHU216HW,2013-01-11 19:17:00,
2013-01-11 14:22:00,54.4,49.6,29.78,West,270,10.5,11.4,84,0.00,,,0.29,WUHU216HW,2013-01-11 19:22:00,
2013-01-11 14:27:00,54.4,49.6,29.78,West,270,13.9,13.9,84,0.00,,,0.29,WUHU216HW,2013-01-11 19:27:00,
2013-01-11 14:32:00,54.0,49.6,29.78,West,270,7.6,13.9,85,0.00,,,0.29,WUHU216HW,2013-01-11 19:32:00,
2013-01-11 14:37:00,53.6,49.5,29.78,WNW,293,5.8,10.5,86,0.00,,,0.29,WUHU216HW,2013-01-11 19:37:00,
2013-01-11 14:42:00,53.6,49.5,29.79,West,270,5.4,7.6,86,0.00,,,0.29,WUHU216HW,2013-01-11 19:42:00,
2013-01-11 14:47:00,53.6,49.5,29.80,WSW,248,6.9,7.4,86,0.00,,,0.29,WUHU216HW,2013-01-11 19:47:00,
2013-01-11 14:52:00,53.5,49.3,29.80,WSW,248,7.4,9.8,86,0.00,,,0.29,WUHU216HW,2013-01-11 19:52:00,
2013-01-11 14:57:00,53.8,50.1,29.80,WSW,248,6.3,9.8,87,0.00,,,0.29,WUHU216HW,2013-01-11 19:57:00,
2013-01-11 15:02:00,54.2,50.0,29.79,SSW,203,4.7,8.7,86,0.00,,,0.29,WUHU216HW,2013-01-11 20:02:00,
2013-01-11 15:07:00,54.5,50.4,29.80,SW,225,3.8,8.7,86,0.00,,,0.29,WUHU216HW,2013-01-11 20:07:00,
2013-01-11 15:12:00,54.5,50.4,29.80,West,270,9.2,9.2,86,0.00,,,0.29,WUHU216HW,2013-01-11 20:12:00,
2013-01-11 15:17:00,54.5,50.1,29.80,WSW,248,9.2,9.2,85,0.00,,,0.29,WUHU216HW,2013-01-11 20:17:00,
2013-01-11 15:22:00,54.7,50.2,29.80,SW,225,9.8,9.8,85,0.00,,,0.29,WUHU216HW,2013-01-11 20:22:00,
2013-01-11 15:27:00,54.4,50.0,29.81,WSW,248,15.2,15.2,85,0.00,,,0.29,WUHU216HW,2013-01-11 20:27:00,
2013-01-11 15:32:00,54.5,49.8,29.80,SW,225,12.1,15.2,84,0.00,,,0.29,WUHU216HW,2013-01-11 20:32:00,
2013-01-11 15:37:00,54.4,49.6,29.81,WSW,248,11.0,15.9,84,0.00,,,0.29,WUHU216HW,2013-01-11 20:37:00,
2013-01-11 15:42:00,54.2,49.4,29.80,SSW,203,8.9,15.9,84,0.00,,,0.29,WUHU216HW,2013-01-11 20:42:00,
2013-01-11 15:47:00,53.8,49.4,29.80,SSW,203,9.8,11.0,85,0.00,,,0.29,WUHU216HW,2013-01-11 20:47:00,
2013-01-11 15:52:00,53.6,49.2,29.80,WSW,248,8.5,10.3,85,0.00,,,0.29,WUHU216HW,2013-01-11 20:52:00,
2013-01-11 15:57:00,53.6,49.2,29.80,SW,225,8.3,10.3,85,0.00,,,0.29,WUHU216HW,2013-01-11 20:57:00,
2013-01-11 16:02:00,53.6,49.2,29.81,SSW,203,6.0,14.3,85,0.00,,,0.29,WUHU216HW,2013-01-11 21:02:00,
2013-01-11 16:07:00,53.8,49.4,29.81,SSW,203,8.5,14.3,85,0.00,,,0.29,WUHU216HW,2013-01-11 21:07:00,
2013-01-11 16:12:00,54.0,49.2,29.81,SW,225,9.2,13.2,84,0.00,,,0.29,WUHU216HW,2013-01-11 21:12:00,
2013-01-11 16:17:00,54.0,49.2,29.81,SSW,203,8.5,13.2,84,0.00,,,0.29,WUHU216HW,2013-01-11 21:17:00,
2013-01-11 16:22:00,54.2,49.2,29.80,SSW,203,9.4,15.0,83,0.00,,,0.29,WUHU216HW,2013-01-11 21:22:00,
2013-01-11 16:27:00,54.0,48.6,29.81,SW,225,11.4,15.0,82,0.00,,,0.29,WUHU216HW,2013-01-11 21:27:00,
2013-01-11 16:32:00,53.6,48.3,29.80,SW,225,10.3,11.4,82,0.00,,,0.29,WUHU216HW,2013-01-11 21:32:00,
2013-01-11 16:37:00,53.3,48.0,29.80,SW,225,11.4,11.4,82,0.00,,,0.29,WUHU216HW,2013-01-11 21:37:00,
2013-01-11 16:42:00,53.1,47.8,29.80,SSW,203,11.9,11.9,82,0.00,,,0.29,WUHU216HW,2013-01-11 21:42:00,
2013-01-11 16:47:00,52.7,47.7,29.82,SSW,203,10.3,11.9,83,0.00,,,0.29,WUHU216HW,2013-01-11 21:47:00,
2013-01-11 16:52:00,52.2,47.5,29.82,SSW,203,8.9,10.3,84,0.00,,,0.29,WUHU216HW,2013-01-11 21:52:00,
2013-01-11 16:57:00,52.0,47.6,29.82,SSW,203,7.8,13.4,85,0.00,,,0.29,WUHU216HW,2013-01-11 21:57:00,
2013-01-11 17:02:00,51.8,47.4,29.81,SW,225,6.3,13.4,85,0.00,,,0.29,WUHU216HW,2013-01-11 22:02:00,
2013-01-11 17:07:00,51.8,47.7,29.81,SSW,203,9.4,11.2,86,0.00,,,0.29,WUHU216HW,2013-01-11 22:07:00,
2013-01-11 17:12:00,51.5,47.3,29.81,SW,225,6.0,11.2,86,0.00,,,0.29,WUHU216HW,2013-01-11 22:12:00,
2013-01-11 17:17:00,51.3,47.2,29.82,SW,225,7.2,10.5,86,0.00,,,0.29,WUHU216HW,2013-01-11 22:17:00,
2013-01-11 17:22:00,50.9,46.8,29.82,SSW,203,7.6,9.8,86,0.00,,,0.29,WUHU216HW,2013-01-11 22:22:00,
2013-01-11 17:27:00,50.8,46.6,29.82,SSW,203,7.6,9.8,86,0.00,,,0.29,WUHU216HW,2013-01-11 22:27:00,
2013-01-11 17:32:00,50.8,46.6,29.82,SSW,203,9.2,9.2,86,0.00,,,0.29,WUHU216HW,2013-01-11 22:32:00,
2013-01-11 17:37:00,50.8,46.6,29.82,SSW,203,6.3,9.2,86,0.00,,,0.29,WUHU216HW,2013-01-11 22:37:00,
2013-01-11 17:42:00,50.4,46.6,29.82,SSW,203,5.4,6.7,87,0.00,,,0.29,WUHU216HW,2013-01-11 22:42:00,
2013-01-11 17:47:00,49.9,46.1,29.81,SSW,203,4.7,6.7,87,0.00,,,0.29,WUHU216HW,2013-01-11 22:47:00,
2013-01-11 17:52:00,49.3,45.5,29.82,SSW,203,5.4,6.3,87,0.00,,,0.29,WUHU216HW,2013-01-11 22:52:00,
2013-01-11 17:57:00,49.0,45.5,29.82,SSW,203,4.7,6.7,88,0.00,,,0.29,WUHU216HW,2013-01-11 22:57:00,
2013-01-11 18:02:00,48.6,45.2,29.82,SSW,203,4.0,6.7,88,0.00,,,0.29,WUHU216HW,2013-01-11 23:02:00,
2013-01-11 18:07:00,48.2,44.9,29.82,SSW,203,4.0,4.9,88,0.00,,,0.29,WUHU216HW,2013-01-11 23:07:00,
2013-01-11 18:12:00,47.9,44.6,29.82,SSW,203,4.7,4.7,88,0.00,,,0.29,WUHU216HW,2013-01-11 23:12:00,
2013-01-11 18:17:00,47.5,44.2,29.83,SSW,203,3.4,5.1,88,0.00,,,0.29,WUHU216HW,2013-01-11 23:17:00,
2013-01-11 18:22:00,47.2,44.2,29.82,South,180,2.5,5.1,89,0.00,,,0.29,WUHU216HW,2013-01-11 23:22:00,
2013-01-11 18:27:00,47.2,44.2,29.82,South,180,4.0,5.4,89,0.00,,,0.29,WUHU216HW,2013-01-11 23:27:00,
2013-01-11 18:32:00,46.8,43.8,29.82,South,180,4.5,5.4,89,0.00,,,0.29,WUHU216HW,2013-01-11 23:32:00,
2013-01-11 18:37:00,46.8,44.1,29.81,SSW,203,3.4,5.4,90,0.00,,,0.29,WUHU216HW,2013-01-11 23:37:00,
2013-01-11 18:42:00,46.8,44.1,29.81,SSE,158,3.6,4.5,90,0.00,,,0.29,WUHU216HW,2013-01-11 23:42:00,
2013-01-11 18:47:00,46.8,44.1,29.82,SSE,158,2.2,4.5,90,0.00,,,0.29,WUHU216HW,2013-01-11 23:47:00,
2013-01-11 18:52:00,46.4,43.7,29.82,SSE,158,4.0,4.3,90,0.00,,,0.29,WUHU216HW,2013-01-11 23:52:00,
2013-01-11 18:57:00,46.4,43.7,29.82,SSE,158,4.0,4.3,90,0.00,,,0.29,WUHU216HW,2013-01-11 23:57:00,
2013-01-11 19:02:00,46.3,43.8,29.83,SSE,158,3.4,4.0,91,0.00,,,0.29,WUHU216HW,2013-01-12 00:02:00,
2013-01-11 19:07:00,45.9,43.5,29.83,SSE,158,3.6,3.6,91,0.00,,,0.29,WUHU216HW,2013-01-12 00:07:00,
2013-01-11 19:12:00,45.9,43.5,29.82,SE,135,3.1,6.0,91,0.00,,,0.29,WUHU216HW,2013-01-12 00:12:00,
2013-01-11 19:17:00,45.9,43.5,29.82,SSE,158,3.4,6.0,91,0.00,,,0.29,WUHU216HW,2013-01-12 00:17:00,
2013-01-11 19:22:00,45.9,43.5,29.82,SSE,158,3.6,5.4,91,0.00,,,0.29,WUHU216HW,2013-01-12 00:22:00,
2013-01-11 19:27:00,45.9,43.5,29.82,SSE,158,3.6,6.0,91,0.00,,,0.29,WUHU216HW,2013-01-12 00:27:00,
2013-01-11 19:32:00,45.7,43.3,29.83,SSE,158,1.8,6.0,91,0.00,,,0.29,WUHU216HW,2013-01-12 00:32:00,
2013-01-11 19:37:00,45.2,42.8,29.82,SSE,158,3.4,4.5,91,0.00,,,0.29,WUHU216HW,2013-01-12 00:37:00,
2013-01-11 19:42:00,45.4,42.9,29.82,SSE,158,4.7,4.7,91,0.00,,,0.29,WUHU216HW,2013-01-12 00:42:00,
2013-01-11 19:47:00,45.5,43.1,29.81,SE,135,2.9,5.4,91,0.00,,,0.29,WUHU216HW,2013-01-12 00:47:00,
2013-01-11 19:52:00,45.7,43.3,29.82,SSE,158,4.0,6.3,91,0.00,,,0.29,WUHU216HW,2013-01-12 00:52:00,
2013-01-11 19:57:00,45.9,44.0,29.82,SSE,158,6.0,6.3,93,0.00,,,0.29,WUHU216HW,2013-01-12 00:57:00,
2013-01-11 20:02:00,46.3,44.1,29.82,SE,135,6.9,9.2,92,0.00,,,0.29,WUHU216HW,2013-01-12 01:02:00,
2013-01-11 20:07:00,46.3,44.1,29.82,South,180,4.0,9.2,92,0.00,,,0.29,WUHU216HW,2013-01-12 01:07:00,
2013-01-11 20:12:00,46.4,44.6,29.82,SSE,158,2.9,6.9,93,0.00,,,0.29,WUHU216HW,2013-01-12 01:12:00,
2013-01-11 20:17:00,46.4,44.3,29.82,SSE,158,5.4,5.4,92,0.00,,,0.29,WUHU216HW,2013-01-12 01:17:00,
2013-01-11 20:22:00,46.4,44.6,29.82,SSE,158,3.8,5.4,93,0.00,,,0.29,WUHU216HW,2013-01-12 01:22:00,
2013-01-11 20:27:00,46.6,44.7,29.82,SSE,158,3.8,4.7,93,0.00,,,0.29,WUHU216HW,2013-01-12 01:27:00,
2013-01-11 20:32:00,46.6,44.7,29.81,South,180,3.8,5.8,93,0.00,,,0.29,WUHU216HW,2013-01-12 01:32:00,
2013-01-11 20:37:00,46.8,44.9,29.81,South,180,4.5,5.8,93,0.00,,,0.29,WUHU216HW,2013-01-12 01:37:00,
2013-01-11 20:42:00,46.8,44.9,29.81,South,180,6.9,6.9,93,0.00,,,0.29,WUHU216HW,2013-01-12 01:42:00,
2013-01-11 20:47:00,46.8,44.9,29.81,SSE,158,4.5,6.9,93,0.00,,,0.29,WUHU216HW,2013-01-12 01:47:00,
2013-01-11 20:52:00,46.6,44.5,29.81,South,180,3.4,7.6,92,0.00,,,0.29,WUHU216HW,2013-01-12 01:52:00,
2013-01-11 20:57:00,46.6,44.7,29.81,South,180,2.5,7.6,93,0.00,,,0.29,WUHU216HW,2013-01-12 01:57:00,
2013-01-11 21:02:00,46.6,44.7,29.81,SE,135,5.4,6.9,93,0.00,,,0.29,WUHU216HW,2013-01-12 02:02:00,
2013-01-11 21:07:00,46.6,44.7,29.81,SSE,158,7.6,7.6,93,0.00,,,0.29,WUHU216HW,2013-01-12 02:07:00,
2013-01-11 21:12:00,46.8,44.9,29.81,SSE,158,5.6,8.5,93,0.00,,,0.29,WUHU216HW,2013-01-12 02:12:00,
2013-01-11 21:17:00,46.8,44.9,29.81,SSE,158,3.6,8.9,93,0.00,,,0.29,WUHU216HW,2013-01-12 02:17:00,
2013-01-11 21:22:00,46.8,44.9,29.81,SSE,158,4.5,8.9,93,0.00,,,0.29,WUHU216HW,2013-01-12 02:22:00,
2013-01-11 21:27:00,46.8,44.9,29.81,South,180,3.6,7.6,93,0.00,,,0.29,WUHU216HW,2013-01-12 02:27:00,
2013-01-11 21:32:00,47.0,45.4,29.81,South,180,7.6,7.6,94,0.00,,,0.29,WUHU216HW,2013-01-12 02:32:00,
2013-01-11 21:38:00,47.2,45.3,29.81,South,180,3.8,7.6,93,0.00,,,0.29,WUHU216HW,2013-01-12 02:38:00,
2013-01-11 21:43:00,47.2,45.3,29.80,SSE,158,5.1,6.9,93,0.00,,,0.29,WUHU216HW,2013-01-12 02:43:00,
2013-01-11 21:48:00,47.2,45.3,29.80,South,180,6.7,7.6,93,0.00,,,0.29,WUHU216HW,2013-01-12 02:48:00,
2013-01-11 21:53:00,47.3,45.5,29.80,SSE,158,6.9,8.7,93,0.00,,,0.29,WUHU216HW,2013-01-12 02:53:00,
2013-01-11 21:58:00,47.5,45.6,29.80,South,180,5.6,8.5,93,0.00,,,0.29,WUHU216HW,2013-01-12 02:58:00,
2013-01-11 22:03:00,47.7,45.8,29.81,SSE,158,5.4,8.1,93,0.00,,,0.29,WUHU216HW,2013-01-12 03:03:00,
2013-01-11 22:08:00,47.7,45.8,29.81,SSE,158,8.9,8.9,93,0.00,,,0.29,WUHU216HW,2013-01-12 03:08:00,
2013-01-11 22:13:00,47.7,45.8,29.80,SSE,158,4.9,8.9,93,0.00,,,0.29,WUHU216HW,2013-01-12 03:13:00,
2013-01-11 22:18:00,47.5,45.6,29.80,SSW,203,7.6,8.1,93,0.00,,,0.29,WUHU216HW,2013-01-12 03:18:00,
2013-01-11 22:23:00,47.3,45.5,29.80,South,180,6.3,9.2,93,0.00,,,0.29,WUHU216HW,2013-01-12 03:23:00,
2013-01-11 22:28:00,47.5,45.6,29.81,SSW,203,9.2,9.2,93,0.00,,,0.29,WUHU216HW,2013-01-12 03:28:00,
2013-01-11 22:33:00,47.7,45.8,29.80,South,180,4.0,9.2,93,0.00,,,0.29,WUHU216HW,2013-01-12 03:33:00,
2013-01-11 22:38:00,47.5,45.6,29.81,South,180,6.3,8.5,93,0.00,,,0.29,WUHU216HW,2013-01-12 03:38:00,
2013-01-11 22:43:00,47.5,45.6,29.81,South,180,9.6,9.6,93,0.00,,,0.29,WUHU216HW,2013-01-12 03:43:00,
2013-01-11 22:48:00,47.7,45.8,29.81,South,180,6.9,9.6,93,0.00,,,0.29,WUHU216HW,2013-01-12 03:48:00,
2013-01-11 22:53:00,47.7,45.8,29.80,South,180,8.3,8.3,93,0.00,,,0.29,WUHU216HW,2013-01-12 03:53:00,
2013-01-11 22:58:00,47.7,45.8,29.81,South,180,7.8,8.7,93,0.00,,,0.29,WUHU216HW,2013-01-12 03:58:00,
2013-01-11 23:03:00,47.7,45.8,29.81,South,180,9.6,9.8,93,0.00,,,0.29,WUHU216HW,2013-01-12 04:03:00,
2013-01-11 23:08:00,47.7,45.8,29.80,SSE,158,5.6,9.8,93,0.00,,,0.29,WUHU216HW,2013-01-12 04:08:00,
2013-01-11 23:13:00,47.7,45.8,29.80,South,180,4.0,10.1,93,0.00,,,0.29,WUHU216HW,2013-01-12 04:13:00,
2013-01-11 23:18:00,47.7,45.8,29.79,South,180,7.6,10.1,93,0.00,,,0.29,WUHU216HW,2013-01-12 04:18:00,
2013-01-11 23:23:00,47.7,45.8,29.80,SSW,203,8.5,8.5,93,0.00,,,0.29,WUHU216HW,2013-01-12 04:23:00,
2013-01-11 23:28:00,47.9,46.0,29.80,South,180,8.7,8.7,93,0.00,,,0.29,WUHU216HW,2013-01-12 04:28:00,
2013-01-11 23:33:00,47.9,46.0,29.80,South,180,4.9,9.8,93,0.00,,,0.29,WUHU216HW,2013-01-12 04:33:00,
2013-01-11 23:38:00,47.9,46.0,29.80,SSW,203,6.3,10.5,93,0.00,,,0.29,WUHU216HW,2013-01-12 04:38:00,
2013-01-11 23:43:00,47.9,46.0,29.80,SSW,203,7.6,10.5,93,0.00,,,0.29,WUHU216HW,2013-01-12 04:43:00,
2013-01-11 23:48:00,48.1,46.4,29.80,SSW,203,8.7,12.8,94,0.00,,,0.29,WUHU216HW,2013-01-12 04:48:00,
2013-01-11 23:53:00,48.4,46.5,29.80,SSW,203,13.4,14.3,93,0.00,,,0.29,WUHU216HW,2013-01-12 04:53:00,
2013-01-11 23:58:00,48.8,46.9,29.79,SW,225,11.2,14.3,93,0.00,,,0.29,WUHU216HW,2013-01-12 04:58:00,